Date,TemperatureHighF,TemperatureAvgF,TemperatureLowF,DewpointHighF,DewpointAvgF,DewpointLowF,HumidityHigh,HumidityAvg,HumidityLow,PressureMaxIn,PressureMinIn,WindSpeedMaxMPH,WindSpeedAvgMPH,GustSpeedMaxMPH,PrecipitationSumIn
2013-1-1,25,16,5,17,12,3,96,84,66,30.17,30.09,9,6,0,0.00
2013-1-2,31,25,9,24,19,6,89,77,63,30.25,30.10,18,12,0,0.00
2013-1-3,25,18,7,17,11,3,92,76,57,30.29,30.19,10,5,0,0.00
2013-1-4,40,21,9,21,10,3,73,62,45,30.18,30.07,8,6,0,0.00
2013-1-5,38,30,19,26,20,11,71,65,62,30.19,30.03,17,14,0,0.00
2013-1-6,39,25,8,28,17,3,78,70,60,30.22,30.02,8,6,0,0.00
2013-1-7,38,33,27,25,22,19,70,63,58,30.00,29.95,9,6,0,0.00
2013-1-8,43,38,28,30,27,21,74,65,57,30.02,29.85,12,7,0,0.00
2013-1-9,47,34,21,34,26,18,87,72,58,30.34,30.15,12,7,0,0.00
2013-1-10,37,33,27,35,30,24,99,88,77,30.11,29.70,12,8,0,0.00
2013-1-11,33,31,27,33,-5,-100,100,67,100,29.40,29.37,22,13,0,0.00
2013-1-12,16,10,2,7,3,-2,85,74,66,30.08,30.00,19,12,0,0.00
2013-1-13,17,7,-1,7,1,-5,85,77,61,30.19,30.07,11,7,0,0.00
2013-1-14,20,13,1,16,9,-3,95,86,75,30.26,30.14,6,3,0,0.00
2013-1-15,27,10,-2,16,4,-5,92,78,56,30.14,30.04,11,7,0,0.00
2013-1-16,44,40,31,28,26,22,70,58,53,30.17,30.08,17,14,0,0.00
2013-1-17,51,41,27,23,21,19,74,47,33,30.43,30.31,7,5,0,0.00
2013-1-18,55,46,29,27,24,23,76,45,33,30.10,30.02,15,11,0,0.00
2013-1-19,52,46,34,24,22,19,58,39,28,30.20,30.13,14,11,0,0.00
2013-1-20,40,33,24,27,24,20,91,71,58,30.26,30.17,23,14,0,0.00
2013-1-21,36,29,18,23,21,16,90,72,56,30.21,30.10,7,5,0,0.00
2013-1-22,57,45,23,33,23,14,100,52,18,30.11,30.07,7,3,0,0.00
2013-1-23,46,40,26,26,23,20,83,54,38,30.16,30.09,8,4,0,0.00
2013-1-24,42,32,16,25,12,-51,94,59,49,30.12,29.95,16,12,0,0.00
2013-1-26,55,48,34,29,27,26,75,46,33,30.01,29.89,9,4,0,0.00
2013-1-27,56,50,44,43,42,41,90,74,60,29.77,29.75,10,7,0,0.00
2013-1-28,48,43,33,42,40,33,100,88,77,29.70,29.60,9,6,0,0.00
2013-1-29,30,28,23,28,23,18,99,82,72,29.85,29.69,16,13,0,0.00
2013-1-30,35,24,12,23,15,8,85,69,43,29.93,29.83,21,10,0,0.00
2013-1-31,29,25,20,23,17,13,85,69,57,30.18,29.98,14,11,0,0.00
2013-2-1,52,41,25,27,16,-51,89,48,32,30.06,29.99,16,10,0,0.00
2013-2-2,52,46,33,27,24,21,77,45,31,30.24,30.20,21,15,0,0.00
2013-2-3,53,45,28,24,21,19,76,41,28,30.12,29.88,15,10,0,0.00
2013-2-4,58,49,31,22,17,10,70,31,15,29.97,29.85,9,7,0,0.00
2013-2-5,54,50,36,26,23,21,63,36,28,30.06,29.96,10,6,0,0.00
2013-2-6,62,53,34,25,22,16,68,33,17,29.84,29.80,15,8,0,0.00
2013-2-7,51,45,32,30,20,13,90,41,22,30.15,30.11,14,10,0,0.00
2013-2-8,57,49,31,25,23,21,72,37,26,30.03,29.85,24,18,0,0.00
2013-2-9,56,48,29,23,21,20,72,38,26,29.73,29.51,18,12,0,0.00
2013-2-10,35,31,27,29,27,26,96,85,79,29.84,29.60,28,24,0,0.00
2013-2-11,32,26,19,17,14,12,76,62,43,30.12,30.05,15,6,0,0.00
2013-2-12,40,29,17,19,14,11,79,56,33,30.06,29.98,16,10,0,0.00
2013-2-13,51,43,29,24,14,-51,62,36,30,29.93,3.43,22,15,0,0.00
2013-2-14,36,35,32,31,13,-51,82,53,47,30.20,3.43,22,16,0,0.00
2013-2-15,34,30,22,20,15,10,82,55,37,30.29,30.26,17,12,0,0.00
2013-2-16,55,50,37,22,21,20,52,32,26,30.08,30.00,21,18,0,0.00
2013-2-17,62,53,32,23,14,6,69,25,11,29.81,29.59,10,6,0,0.00
2013-2-18,42,38,30,23,16,10,73,43,28,30.01,29.91,24,19,0,0.00
2013-2-19,41,31,12,20,16,10,91,57,34,30.17,30.01,19,11,0,0.00
2013-2-20,32,24,18,20,-8,-100,93,65,90,29.94,29.85,18,16,0,0.00
2013-2-21,17,16,15,15,14,12,93,90,88,29.88,29.83,12,11,0,0.00
2013-2-22,30,18,0,22,13,-3,92,82,72,29.98,29.90,9,6,0,0.00
2013-2-23,32,23,13,22,14,7,80,67,58,29.82,29.76,7,4,0,0.00
2013-2-24,32,30,27,27,26,25,95,86,80,29.89,29.83,22,15,0,0.00
2013-2-25,32,30,25,23,22,20,91,75,70,30.05,29.94,13,9,0,0.00
2013-2-26,31,23,0,22,15,-3,86,72,66,29.87,29.82,9,6,0,0.00
2013-2-27,34,31,28,25,24,22,80,74,68,30.17,30.11,23,14,0,0.00
2013-2-28,38,32,15,26,20,10,80,62,53,30.22,30.14,12,9,0,0.00
2013-3-1,39,34,21,28,25,19,90,70,56,30.27,30.21,14,10,0,0.00
2013-3-2,56,48,36,40,34,32,83,59,41,30.20,30.10,16,12,0,0.00
2013-3-3,64,54,32,35,24,-51,88,37,30,29.83,29.66,16,8,0,0.00
2013-3-4,40,37,32,28,23,12,83,59,35,29.98,29.81,22,15,0,0.00
2013-3-5,41,34,20,11,9,5,70,37,22,30.31,30.24,16,10,0,0.00
2013-3-6,50,39,21,27,23,18,87,55,34,30.16,29.94,19,16,0,0.00
2013-3-7,54,42,25,30,28,24,97,61,37,30.00,29.94,9,4,0,0.00
2013-3-8,50,42,30,36,32,27,90,68,55,29.97,29.82,14,7,0,0.00
2013-3-9,37,32,30,36,-18,-100,96,53,92,29.68,3.43,23,19,0,0.00
2013-3-10,28,26,22,17,16,15,77,65,58,30.10,30.05,25,21,0,0.00
2013-3-11,46,40,22,34,29,17,80,65,55,29.95,29.92,18,12,0,0.00
2013-3-12,44,38,28,25,18,13,82,46,30,30.29,30.22,20,13,0,0.00
2013-3-13,64,52,32,34,20,-51,71,37,25,30.22,30.14,10,6,0,0.00
2013-3-14,71,65,42,34,28,23,72,29,16,30.24,30.12,10,7,0,0.00
2013-3-15,78,63,48,35,27,16,59,30,10,29.93,29.82,18,10,0,0.00
2013-3-16,47,40,31,33,30,26,98,69,44,30.05,29.92,17,10,0,0.00
2013-3-17,55,38,29,31,29,25,100,76,32,29.94,29.59,24,18,0,0.00
2013-3-18,47,42,27,23,14,8,77,36,20,29.97,29.90,17,12,0,0.00
2013-3-19,50,42,27,20,13,7,67,34,17,30.16,30.12,17,10,0,0.00
2013-3-20,51,40,23,18,16,12,74,39,25,30.27,29.91,18,14,0,0.00
2013-3-21,46,38,27,23,14,-51,73,46,39,29.74,29.67,15,13,0,0.00
2013-3-22,47,41,30,32,26,21,87,58,37,29.89,29.81,8,6,0,0.00
2013-3-23,32,24,21,26,4,-100,100,77,92,30.06,3.43,22,19,0,0.00
2013-3-24,28,19,4,20,12,1,87,75,65,30.20,30.09,16,8,0,0.00
2013-3-25,31,14,3,16,8,0,86,74,50,30.30,30.21,13,9,0,0.00
2013-3-26,38,32,17,29,22,8,74,67,62,30.17,30.01,15,11,0,0.00
2013-3-27,56,43,27,34,24,-51,94,58,41,30.11,3.43,7,4,0,0.00
2013-3-28,62,55,40,39,35,33,80,49,34,30.14,30.05,16,11,0,0.00
2013-3-29,69,57,32,44,30,-51,83,45,30,30.12,3.43,18,11,0,0.00
2013-3-30,63,51,32,46,28,-100,93,59,32,30.15,30.02,15,8,0,0.00
2013-3-31,69,49,31,37,30,17,97,61,15,30.14,29.92,16,7,0,0.00
2013-4-1,51,42,31,27,25,23,80,55,35,30.24,30.12,9,7,0,0.00
2013-4-2,44,37,29,32,29,25,89,71,59,30.19,30.14,13,9,0,0.00
2013-4-3,54,48,37,31,26,22,78,42,31,30.20,30.11,17,14,0,0.00
2013-4-4,67,53,25,33,30,24,96,48,25,30.15,30.06,9,6,0,0.00
2013-4-5,75,68,56,28,25,21,34,20,13,29.91,29.72,12,7,0,0.00
2013-4-6,69,62,46,36,25,19,68,29,15,29.89,29.85,19,13,0,0.00
2013-4-7,70,58,49,45,33,22,80,44,17,29.87,29.70,11,7,0,0.00
2013-4-8,74,63,32,52,29,-51,64,35,17,29.70,3.43,24,13,0,0.00
2013-4-9,17,16,15,15,14,13,92,91,89,30.13,30.00,25,23,0,0.00
2013-4-10,26,20,15,22,16,11,87,83,76,30.11,29.96,24,20,0,0.00
2013-4-11,42,33,17,32,14,-100,85,65,59,29.81,29.77,20,15,0,0.00
2013-4-12,50,43,33,38,35,31,91,74,50,30.00,29.88,18,10,0,0.00
2013-4-13,67,53,32,47,36,-51,95,61,42,29.85,3.43,19,13,0,0.00
2013-4-14,51,47,32,45,22,-51,83,45,19,29.68,29.36,38,26,0,0.00
2013-4-15,41,36,31,25,23,19,65,58,47,29.94,29.89,13,11,0,0.00
2013-4-16,41,35,31,28,8,-100,89,58,55,30.11,29.98,20,15,0,0.00
2013-4-17,32,30,28,30,-8,-100,100,70,96,29.97,29.92,13,9,0,0.00
2013-4-18,31,28,24,22,21,19,87,74,62,30.07,30.03,23,16,0,0.00
2013-4-19,55,50,32,31,18,-51,48,34,32,30.04,29.99,19,14,0,0.00
2013-4-20,57,46,32,31,16,-51,86,42,32,30.01,29.95,13,11,0,0.00
2013-4-21,66,59,44,42,33,26,82,41,24,30.05,30.00,16,10,0,0.00
2013-4-22,44,35,30,44,32,25,100,91,80,30.16,29.90,25,21,0,0.00
2013-4-23,41,32,25,22,19,16,78,59,37,30.25,30.13,13,11,0,0.00
2013-4-24,55,51,32,22,9,-51,35,21,17,30.16,30.13,17,13,0,0.00
2013-4-25,72,59,32,29,25,19,75,31,13,30.12,29.90,17,11,0,0.00
2013-4-26,74,66,40,36,18,11,87,22,9,30.12,30.03,21,14,0,0.00
2013-4-27,79,70,42,32,20,10,66,21,7,30.14,29.97,9,5,0,0.00
2013-4-28,85,75,32,31,17,-51,34,12,9,29.90,29.82,22,14,0,0.00
2013-4-29,82,76,63,35,31,26,33,20,13,29.85,29.63,14,12,0,0.00
2013-4-30,66,60,47,37,33,28,68,38,26,29.84,29.80,19,15,0,0.00
2013-5-1,33,32,30,31,0,-100,96,67,91,30.35,3.43,19,17,0,0.00
2013-5-2,48,41,29,30,26,20,90,57,33,30.61,30.44,12,10,0,0.00
2013-5-3,58,50,31,30,22,17,83,38,20,30.27,30.10,12,7,0,0.00
2013-5-4,59,50,31,24,13,6,75,26,13,30.18,30.13,16,14,0,0.00
2013-5-5,63,52,32,25,14,-51,73,26,17,30.25,30.12,9,6,0,0.00
2013-5-6,72,64,43,32,26,20,62,25,17,30.14,29.98,16,11,0,0.00
2013-5-7,71,68,64,49,48,46,56,49,41,29.97,29.90,15,13,0,0.00
2013-5-8,71,62,32,53,41,-51,86,54,41,30.01,29.95,13,8,0,0.00
2013-5-9,65,58,49,50,47,44,87,69,47,30.12,30.06,16,12,0,0.00
2013-5-10,72,61,48,49,37,-100,94,50,28,30.19,30.12,6,5,0,0.00
2013-5-11,65,58,47,36,26,21,66,31,21,30.39,30.24,13,8,0,0.00
2013-5-12,79,67,47,45,37,27,87,40,15,30.15,30.07,12,8,0,0.00
2013-5-13,92,73,45,45,36,26,84,37,10,30.09,30.00,7,5,0,0.00
2013-5-14,95,88,64,45,32,23,49,17,8,29.94,29.83,11,8,0,0.00
2013-5-15,83,73,64,46,40,33,49,32,20,29.97,29.86,16,12,0,0.00
2013-5-16,75,57,55,59,31,-100,94,61,27,29.91,29.82,11,6,0,0.00
2013-5-17,86,68,54,63,44,-100,96,65,27,29.93,29.80,22,13,0,0.00
2013-5-18,81,68,57,63,59,50,96,74,45,29.85,29.71,18,10,0,0.00
2013-5-19,59,55,53,53,52,50,97,88,80,29.81,29.70,21,11,0,0.00
2013-5-20,61,55,50,51,47,43,97,77,60,29.90,29.79,29,20,0,0.00
2013-5-21,62,55,48,46,43,40,84,66,47,29.95,29.88,27,19,0,0.00
2013-5-22,69,55,42,47,44,41,97,69,39,30.10,29.95,12,8,0,0.00
2013-5-23,68,57,47,49,46,44,93,71,50,30.20,30.11,18,11,0,0.00
2013-5-24,81,67,56,62,55,51,92,70,37,30.10,29.89,24,20,0,0.00
2013-5-25,90,72,57,63,52,42,96,56,19,30.01,29.86,19,11,0,0.00
2013-5-26,88,74,58,60,53,44,98,54,22,29.89,29.83,16,7,0,0.00
2013-5-27,71,64,32,63,50,-51,90,67,39,29.85,3.43,15,10,0,0.00
2013-5-28,80,64,49,58,51,44,100,67,29,29.85,29.67,18,8,0,0.00
2013-5-29,74,61,52,59,54,50,96,80,57,29.69,29.51,20,11,0,0.00
2013-5-30,73,61,49,50,43,32,97,56,22,29.80,29.65,18,10,0,0.00
2013-5-31,74,61,46,45,36,27,90,47,18,29.96,29.81,26,16,0,0.00
2013-6-1,68,57,49,44,38,-100,77,57,32,30.19,29.96,24,17,0,0.00
2013-6-2,77,58,32,45,36,-51,94,53,24,30.19,29.94,19,9,0,0.00
2013-6-3,91,69,50,55,48,45,82,52,21,29.92,29.71,16,13,0,0.00
2013-6-4,74,66,58,57,51,45,94,61,41,30.07,29.86,15,11,0,0.00
2013-6-5,65,55,48,54,47,41,95,76,41,30.19,30.11,17,8,0,0.00
2013-6-6,77,61,43,49,45,41,96,62,30,30.14,30.03,11,4,0,0.00
2013-6-7,81,66,48,52,47,41,93,57,25,30.09,29.86,12,5,0,0.00
2013-6-8,79,66,53,60,52,37,85,62,22,29.99,29.71,19,11,0,0.00
2013-6-9,86,68,51,49,44,36,86,49,17,30.05,29.94,7,5,0,0.00
2013-6-10,101,78,54,62,44,34,73,40,10,29.96,29.81,13,6,0,0.00
2013-6-11,96,80,61,62,57,48,89,50,20,29.84,29.67,12,7,0,0.00
2013-6-12,88,74,62,63,55,45,96,57,23,30.14,29.85,17,9,0,0.00
2013-6-13,84,66,53,60,54,51,94,67,35,30.19,29.97,12,8,0,0.00
2013-6-14,85,74,65,64,58,51,94,60,31,30.02,29.89,16,9,0,0.00
2013-6-15,85,73,58,62,58,54,94,63,39,30.04,29.95,13,7,0,0.00
2013-6-16,88,71,60,61,56,48,97,64,28,30.11,29.95,12,7,0,0.00
2013-6-17,80,66,52,62,55,51,100,73,39,30.17,30.07,9,5,0,0.00
2013-6-18,83,71,58,58,54,50,88,57,31,30.17,29.94,15,9,0,0.00
2013-6-19,82,71,56,64,58,43,89,65,33,30.02,29.85,19,11,0,0.00
2013-6-20,84,71,61,65,62,60,94,75,52,29.89,29.79,9,6,0,0.00
2013-6-22,86,77,64,66,62,53,79,63,49,29.93,29.76,11,7,0,0.00
2013-6-23,82,70,56,60,57,53,94,65,37,30.00,29.86,11,6,0,0.00
2013-6-24,86,73,60,68,61,54,95,70,42,29.99,29.75,12,6,0,0.00
2013-6-25,92,76,64,67,59,45,96,63,20,29.90,29.75,11,6,0,0.00
2013-6-26,92,80,59,60,57,53,89,49,27,30.07,29.98,5,4,0,0.00
2013-6-27,86,78,65,66,60,53,85,57,39,30.20,30.00,14,8,0,0.00
2013-6-28,87,75,59,66,59,52,98,63,31,30.23,30.14,9,5,0,0.00
2013-6-29,84,73,58,61,56,52,94,59,35,30.20,30.10,9,4,0,0.00
2013-6-30,78,68,52,58,54,50,92,63,42,30.22,30.16,5,3,0,0.00
2013-7-1,78,65,54,55,52,47,95,66,36,30.31,30.22,6,3,0,0.00
2013-7-2,80,65,47,51,46,39,96,58,24,30.28,30.16,6,2,0,0.00
2013-7-3,84,71,49,50,47,44,89,49,27,30.16,29.95,7,4,0,0.00
2013-7-4,89,77,52,53,50,47,89,42,25,29.99,29.90,8,5,0,0.00
2013-7-5,88,80,57,58,55,52,86,44,31,29.90,29.79,8,6,0,0.00
2013-7-6,92,77,60,63,58,55,90,56,30,29.91,29.81,6,3,0,0.00
2013-7-7,93,78,63,67,63,57,95,66,32,30.09,29.91,15,5,0,0.00
2013-7-8,91,75,62,68,64,61,98,73,39,30.09,29.97,10,4,0,0.00
2013-7-9,92,77,63,72,66,60,97,74,36,30.18,30.00,6,4,0,0.00
2013-7-10,83,71,67,67,59,-100,95,73,46,30.23,30.08,10,6,0,0.00
2013-7-11,89,76,61,64,61,58,98,66,36,30.14,29.96,8,5,0,0.00
2013-7-12,95,78,65,66,63,58,90,64,29,29.99,29.90,4,3,0,0.00
2013-7-13,94,81,63,69,65,62,95,62,35,30.03,29.95,14,4,0,0.00
2013-7-14,81,72,67,71,67,63,98,87,69,30.19,29.98,11,4,0,0.00
2013-7-15,79,69,61,65,62,53,99,82,41,30.25,30.17,7,4,0,0.00
2013-7-16,80,69,59,63,60,58,98,76,49,30.30,30.19,9,5,0,0.00
2013-7-17,84,71,59,65,60,58,99,71,42,30.34,30.19,11,6,0,0.00
2013-7-18,89,80,63,64,61,60,94,57,39,30.20,30.00,9,6,0,0.00
2013-7-19,86,73,60,66,64,60,99,75,49,30.10,30.03,7,4,0,0.00
2013-7-20,84,72,58,69,63,55,100,76,52,30.07,29.96,8,2,0,0.00
2013-7-21,86,72,57,66,60,56,98,69,46,30.06,29.90,9,4,0,0.00
2013-7-22,90,84,67,63,60,57,79,46,33,30.00,29.92,6,4,0,0.00
2013-7-23,87,79,65,63,58,54,80,51,33,30.11,30.02,8,5,0,0.00
2013-7-24,87,77,62,65,62,52,100,65,39,30.26,30.10,8,4,0,0.00
2013-7-25,78,67,58,69,63,58,99,87,62,30.20,30.09,6,2,0,0.00
2013-7-26,81,69,56,65,59,53,100,74,38,30.31,30.17,7,3,0,0.00
2013-7-27,69,61,56,57,55,52,98,82,64,30.19,30.09,9,6,0,0.00
2013-7-28,60,58,55,59,58,54,100,97,94,30.07,30.03,5,4,0,0.00
2013-7-29,74,65,59,65,62,59,100,91,67,30.12,30.00,4,2,0,0.00
2013-7-30,86,75,59,66,63,58,100,71,45,30.20,30.12,3,2,0,0.00
2013-7-31,86,77,64,67,65,61,90,67,49,30.26,30.17,5,4,0,0.00
2013-8-1,87,82,67,67,65,61,88,58,41,30.18,29.94,7,4,0,0.00
2013-8-2,86,78,64,67,65,61,90,64,51,30.02,29.98,6,4,0,0.00
2013-8-3,69,68,66,66,64,62,93,87,79,30.23,30.16,9,6,0,0.00
2013-8-4,82,72,63,69,66,63,100,84,60,30.17,30.07,5,4,0,0.00
2013-8-5,91,79,65,70,64,57,99,65,32,30.07,29.98,8,3,0,0.00
2013-8-6,87,81,68,70,66,63,93,62,44,30.01,29.96,4,2,0,0.00
2013-8-7,72,68,60,64,62,59,96,80,70,30.14,30.05,5,3,0,0.00
2013-8-8,77,73,64,62,59,54,91,63,45,30.15,30.12,4,3,0,0.00
2013-8-9,80,73,55,62,58,54,100,62,41,30.22,30.18,4,2,0,0.00
2013-8-10,81,76,59,58,57,53,95,54,44,30.25,30.14,7,6,0,0.00
2013-8-11,82,75,61,68,65,61,98,72,57,30.19,30.10,4,3,0,0.00
2013-8-12,86,75,63,67,64,58,100,70,39,30.19,30.12,3,2,0,0.00
2013-8-13,81,71,59,66,62,58,98,74,51,30.24,30.18,5,3,0,0.00
2013-8-14,82,75,63,64,62,60,99,66,50,30.21,30.11,3,2,0,0.00
2013-8-15,79,44,70,59,-7,-100,58,33,50,30.13,30.10,6,4,0,0.00
2013-8-25,96,84,68,59,57,54,71,42,26,0.00,40.00,8,6,0,0.00
2013-8-26,97,81,68,61,58,55,77,50,28,0.00,40.00,5,4,0,0.00
2013-8-27,95,76,63,63,59,54,85,59,25,0.00,40.00,3,2,0,0.00
2013-8-28,94,92,89,57,54,51,30,28,25,0.00,40.00,5,4,0,0.00
2013-8-29,96,70,56,61,58,56,100,73,27,0.00,40.00,2,1,0,0.00
2013-8-30,92,80,60,70,66,58,94,64,44,0.00,40.00,4,3,0,0.00
2013-8-31,88,69,65,65,53,-100,87,65,48,0.00,40.00,7,4,0,0.00
2013-9-1,83,72,60,64,55,46,100,61,28,0.00,40.00,5,3,0,0.00
2013-9-2,89,75,54,57,54,51,100,54,33,0.00,40.00,7,4,0,0.00
2013-9-3,95,85,59,61,59,57,92,46,31,0.00,40.00,6,5,0,0.00
2013-9-4,92,80,67,63,60,56,82,54,34,0.00,40.00,5,3,0,0.00
2013-9-17,86,68,57,64,60,57,100,82,38,0.00,40.00,5,4,0,0.00
2013-9-18,65,60,56,56,56,56,100,86,71,0.00,40.00,8,5,0,0.00
2013-9-19,65,58,46,59,52,46,100,81,57,0.00,40.00,10,4,0,0.00
2013-9-20,78,59,39,50,43,39,100,65,28,0.00,40.00,4,2,0,0.00
2013-9-21,85,61,44,57,43,-100,100,64,26,0.00,40.00,6,4,0,0.00
2013-9-22,88,71,52,59,54,48,100,60,28,0.00,40.00,10,6,0,0.00
2013-9-23,68,61,51,51,50,48,88,66,51,0.00,40.00,15,7,0,0.00
2013-9-24,78,62,45,49,43,36,100,59,24,0.00,40.00,6,4,0,0.00
2013-9-25,87,75,45,45,42,38,92,37,18,0.00,40.00,10,8,0,0.00
2013-9-26,81,67,50,50,48,44,90,55,33,0.00,40.00,7,4,0,0.00
2013-9-27,64,53,46,48,47,46,100,82,56,0.00,40.00,9,7,0,0.01
2013-9-28,65,45,38,45,32,-100,100,75,29,0.00,40.00,10,5,0,0.00
2013-9-29,82,53,34,42,37,34,100,68,18,0.00,40.00,4,2,0,0.00
2013-9-30,82,67,47,47,42,34,80,45,18,0.00,40.00,5,3,0,0.00
2013-10-1,74,74,74,40,40,40,29,29,29,0.00,40.00,6,6,0,0.00
2013-10-2,83,70,43,57,50,42,100,53,31,0.00,40.00,5,3,0,0.00
2013-10-3,53,51,50,53,50,45,100,97,75,0.00,40.00,6,5,0,0.00
2013-10-4,52,41,35,52,36,30,100,80,67,0.00,40.00,17,14,0,0.01
2013-10-5,51,44,34,29,26,24,82,50,34,0.00,40.00,17,14,0,0.00
2013-10-6,66,46,39,36,32,27,90,62,32,0.00,40.00,11,8,0,0.00
2013-10-7,81,58,32,39,34,26,99,53,14,0.00,40.00,8,4,0,0.00
2013-10-8,81,60,34,35,33,30,97,44,16,0.00,40.00,6,3,0,0.00
2013-10-9,71,56,43,41,38,34,81,53,31,0.00,40.00,5,4,0,0.00
2013-10-10,74,48,36,43,40,36,100,81,33,0.00,40.00,9,4,0,0.00
2013-10-11,59,53,47,49,44,41,92,74,51,0.00,40.00,17,11,0,0.00
2013-10-12,59,42,40,39,28,-100,88,69,32,0.00,40.00,4,3,0,0.00
2013-10-13,65,58,42,40,39,37,83,51,38,0.00,40.00,13,9,0,0.00
2013-11-13,61,61,61,29,29,29,30,30,30,0.00,40.00,5,5,0,0.00
2013-11-14,47,40,32,38,34,30,92,82,71,0.00,40.00,9,6,0,0.00
2013-11-15,56,56,56,29,29,29,35,35,35,0.00,40.00,4,4,0,0.00
2013-11-16,32,26,32,29,3,-100,86,69,86,0.00,40.00,6,6,0,0.00
2013-11-17,49,49,49,8,8,8,19,19,19,0.00,40.00,20,20,0,0.00
2013-11-18,37,29,24,17,16,15,67,59,44,0.00,40.00,5,4,0,0.00
2013-11-19,50,40,36,28,26,24,71,57,35,0.00,40.00,9,6,0,0.00
2013-11-28,41,28,19,25,22,18,95,82,49,0.00,40.00,8,4,0,0.00
2013-11-29,27,24,21,23,22,21,100,94,87,0.00,40.00,7,6,0,0.00
2013-11-30,41,31,29,25,10,-100,79,57,50,0.00,40.00,5,4,0,0.00
2013-12-1,30,30,30,27,27,27,87,87,87,0.00,40.00,3,3,0,0.00
2013-12-2,63,60,57,29,27,25,34,29,24,0.00,40.00,17,13,0,0.00
2013-12-3,47,34,21,30,25,16,89,72,48,0.00,40.00,18,13,0,0.00
2013-12-4,12,12,11,6,4,2,80,71,62,0.00,40.00,22,20,0,0.00
2013-12-14,40,28,29,27,-2,-100,90,53,42,0.00,40.00,7,7,0,0.00
2013-12-15,50,41,32,21,21,21,63,47,31,0.00,40.00,9,8,0,0.00
2013-12-16,59,51,34,22,20,18,60,34,20,0.00,40.00,14,10,0,0.00
2013-12-17,25,25,25,21,21,21,83,83,83,0.00,40.00,2,2,0,0.00
2013-12-18,57,44,30,23,21,19,63,44,26,0.00,40.00,5,4,0,0.00
2013-12-19,33,26,22,25,23,20,97,85,71,0.00,40.00,17,8,0,0.00
2013-12-20,17,13,9,9,6,4,79,76,71,0.00,40.00,7,4,0,0.00
2013-12-25,38,32,27,24,22,20,74,64,55,0.00,40.00,17,14,0,0.00
2013-12-26,51,41,25,23,18,16,69,42,27,0.00,40.00,17,13,0,0.00
2013-12-27,29,29,29,20,20,20,68,68,68,0.00,40.00,4,4,0,0.00
2013-12-28,37,25,37,25,-17,-100,62,41,62,0.00,40.00,22,17,0,0.00
2013-12-29,7,7,7,3,3,3,85,85,85,0.00,40.00,4,4,0,0.00
2013-12-31,41,36,30,22,21,20,71,57,42,0.00,40.00,4,3,0,0.00
2014-1-1,30,26,20,27,23,20,98,89,77,0.00,40.00,13,8,0,0.00
2014-1-2,43,32,20,25,21,17,88,68,49,0.00,40.00,9,6,0,0.00